Regional Weather Roundup
Issued by NWS Jackson, KY

Home | Current Version | Previous Version | Text Only | Print | Product List | Glossary On
Versions: 1 2 3 4 5 6 7 8 9 10 11 12 13 14 15 16 17 18 19 20 21 22 23 24 25 26 27
000
ASUS43 KJKL 312110
RWRJKL

EAST KENTUCKY HOURLY WEATHER ROUNDUP
NATIONAL WEATHER SERVICE JACKSON KY
500 PM EDT WED AUG 31 2016

NOTE: "FAIR" INDICATES FEW OR NO CLOUDS BELOW 12,000 FEET WITH
NO SIGNIFICANT WEATHER AND/OR OBSTRUCTIONS TO VISIBILITY.

* THESE REPORTS ARE NOT UNDER NWS QUALITY CONTROL AND MAY NOT
  REPORT WEATHER SUCH AS PRECIPITATION AND FOG.

KYZ079-080-083-085-087-088-110-112-115-119-120-312200
...EASTERN KENTUCKY...

CITY           SKY/WX    TMP DP  RH WIND       PRES   REMARKS
JACKSON        SUNNY     86  66  51 S3        29.95F
LONDON         MOSUNNY   90  64  42 NW6       29.95F HX  91
SOMERSET*      CLOUDY    88  66  48 CALM      29.95F HX  90
WILLIAMSBURG*  PTCLDY    90  68  48 NW5       29.95S HX  93
MIDDLESBORO*   SUNNY     88  69  53 N3        29.94F HX  92
HARLAN APT*    PTCLDY    88  64  45 W6        29.97S
PIKE CO APT*     N/A     86  66  50 N6        29.96F
BIG SANDY APT* CLEAR     89  65  45 CALM      29.94F HX  90
MOREHEAD APT*  MOCLDY    79  70  73 S8        29.96F
ASHLAND*       SUNNY     88  68  51 W3        29.89S HX  91
$$

KYZ035-036-041-042-044-050-067-078-099-312200
...CENTRAL KENTUCKY...

CITY           SKY/WX    TMP DP  RH WIND       PRES   REMARKS
MT STERLING*   CLOUDY    81  70  69 NE6       29.97F
FLEMING/MASON* CLOUDY    87  67  50 W5        29.94F HX  90
DANVILLE*      LGT RAIN  79  68  69 NW5       29.98F
LEXINGTON      CLOUDY    83  72  69 SW6       29.96F
FRANKFORT      PTSUNNY   85  70  60 SW7       29.94S
LOUISVILLE     LGT RAIN  86  72  62 VRB6      29.93S HX  92
LEBANON*         N/A     75  72  88 NW3       29.97F
GLASGOW*       MOSUNNY   85  71  62 N10G17    29.95R HX  90
BOWLING GREEN  SUNNY     88  72  58 N8        29.94S HX  94
$$

KYZ091>093-OHZ055-061-077-WVZ005-015-034-035-042-312200
...SOUTHERN OHIO/WEST VIRGINIA...

CITY           SKY/WX    TMP DP  RH WIND       PRES   REMARKS
COVINGTON      PTSUNNY   80  69  69 N17       29.95R
COLUMBUS       CLOUDY    74  70  87 SE9       29.94R
DAYTON         CLOUDY    82  67  60 N13       29.96S
WILMINGTON     CLOUDY    76  69  79 W3        29.95F
HUNTINGTON     SUNNY     90  60  36 SW5       29.91F
CHARLESTON     MOSUNNY   91  60  35 NW7       29.91F HX  90
PINEVILLE*     SUNNY     89  61  39 MISG      30.01F
BECKLEY        MOSUNNY   82  65  56 NW7       30.01F
BLUEFIELD      MOSUNNY   81  61  50 NW8       30.03F
LOGAN CO APT*    N/A     86  68  54 W6        29.95F
$$

VAZ002-007-008-TNZ017-027-036-066-071-312200
...SOUTHWEST VIRGINIA/EAST TENNESSEE...

CITY           SKY/WX    TMP DP  RH WIND       PRES   REMARKS
WISE*          MOSUNNY   86  54  32 NW8       30.05S
JONESVILLE*      N/A     90  66  45 N5        29.97S HX  92
ABINGDON*      SUNNY     89  64  43 W6        29.99S HX  90
BRISTOL        PTSUNNY   91  65  41 VRB3      29.94F HX  93
MORRISTOWN*    CLEAR     90  66  45 NW6       29.92F HX  92
SEVIERVILLE*     N/A     91  63  38 NE3       29.90F HX  92
KNOXVILLE      MOSUNNY   93  62  35 W5        29.89F HX  93
OAK RIDGE      CLOUDY    94  66  39 VRB3      29.93F HX  97
CROSSVILLE     HVY RAIN  76  71  85 SE7       30.00F
NASHVILLE      MOSUNNY   91  68  46 N9        29.92F HX  95
$$

...KEY TO REMARKS...
VSB - VISIBILITY IN MILES
WCI - WIND CHILL INDEX
HX  - HEAT INDEX

$$




USA.gov is the U.S. government's official web portal to all federal, state and local government web resources and services.